Time,TemperatureF,DewpointF,PressureIn,WindDirection,WindDirectionDegrees,WindSpeedMPH,WindSpeedGustMPH,Humidity,HourlyPrecipIn,Conditions,Clouds,dailyrainin,SoftwareType,DateUTC
2013-02-08 00:00:00,6.2,-6.0,30.58,ESE,112,4.4,13.3,45,0.00,,,0.00,Rainwise IP-100,2013-02-08 05:00:00,
2013-02-08 00:05:00,6.4,-6.0,30.60,East,90,2.8,12.8,46,0.00,,,0.00,Rainwise IP-100,2013-02-08 05:05:00,
2013-02-08 00:10:00,6.3,-6.0,30.56,ESE,112,4.2,16.1,46,0.00,,,0.00,Rainwise IP-100,2013-02-08 05:10:00,
2013-02-08 00:15:00,6.2,-6.0,30.58,ESE,112,10.0,13.3,46,0.00,,,0.00,Rainwise IP-100,2013-02-08 05:15:00,
2013-02-08 00:20:00,6.1,-6.0,30.56,ESE,112,11.2,16.8,46,0.00,,,0.00,Rainwise IP-100,2013-02-08 05:20:00,
2013-02-08 00:25:00,5.9,-6.0,30.57,SE,135,4.9,14.7,46,0.00,,,0.00,Rainwise IP-100,2013-02-08 05:25:00,
2013-02-08 00:30:00,5.8,-6.0,30.59,East,90,3.7,11.9,46,0.00,,,0.00,Rainwise IP-100,2013-02-08 05:30:00,
2013-02-08 00:35:00,5.9,-6.0,30.54,ESE,112,5.8,11.7,47,0.00,,,0.00,Rainwise IP-100,2013-02-08 05:35:00,
2013-02-08 00:40:00,5.9,-6.0,30.55,ESE,112,5.8,12.6,48,0.00,,,0.00,Rainwise IP-100,2013-02-08 05:40:00,
2013-02-08 00:45:00,5.8,-6.0,30.55,ENE,67,12.4,14.2,48,0.00,,,0.00,Rainwise IP-100,2013-02-08 05:45:00,
2013-02-08 00:50:00,5.7,-6.0,30.55,ESE,112,7.2,17.5,48,0.00,,,0.00,Rainwise IP-100,2013-02-08 05:50:00,
2013-02-08 00:55:00,5.5,-6.0,30.55,ESE,112,7.2,13.5,48,0.00,,,0.00,Rainwise IP-100,2013-02-08 05:55:00,
2013-02-08 01:00:00,5.3,-6.0,30.57,East,90,7.0,13.3,47,0.00,,,0.00,Rainwise IP-100,2013-02-08 06:00:00,
2013-02-08 01:05:00,5.3,-6.0,30.57,ESE,112,8.6,11.9,47,0.00,,,0.00,Rainwise IP-100,2013-02-08 06:05:00,
2013-02-08 01:10:00,5.3,-6.0,30.58,ESE,112,2.1,10.5,48,0.00,,,0.00,Rainwise IP-100,2013-02-08 06:10:00,
2013-02-08 01:15:00,5.4,-6.0,30.60,East,90,4.2,8.6,50,0.00,,,0.00,Rainwise IP-100,2013-02-08 06:15:00,
2013-02-08 01:20:00,5.3,-6.0,30.58,SE,135,4.9,11.0,51,0.00,,,0.00,Rainwise IP-100,2013-02-08 06:20:00,
2013-02-08 01:25:00,5.2,-6.0,30.55,ESE,112,6.3,8.4,50,0.00,,,0.00,Rainwise IP-100,2013-02-08 06:25:00,
2013-02-08 01:30:00,5.1,-6.0,30.59,SE,135,7.5,11.2,51,0.00,,,0.00,Rainwise IP-100,2013-02-08 06:30:00,
2013-02-08 01:32:00,5.1,-6.0,30.61,East,90,5.4,11.2,51,0.00,,,0.00,Rainwise IP-100,2013-02-08 06:32:00,
2013-02-08 01:37:00,4.9,-6.0,30.59,East,90,7.5,10.5,50,0.00,,,0.00,Rainwise IP-100,2013-02-08 06:37:00,
2013-02-08 01:42:00,4.8,-6.0,30.59,ESE,112,1.4,10.5,50,0.00,,,0.00,Rainwise IP-100,2013-02-08 06:42:00,
2013-02-08 01:47:00,4.9,-6.0,30.58,East,90,4.4,9.1,51,0.00,,,0.00,Rainwise IP-100,2013-02-08 06:47:00,
2013-02-08 01:52:00,5.0,-6.0,30.59,ENE,67,4.4,9.8,51,0.00,,,0.00,Rainwise IP-100,2013-02-08 06:52:00,
2013-02-08 01:57:00,5.1,-6.0,30.58,East,90,8.9,10.5,51,0.00,,,0.00,Rainwise IP-100,2013-02-08 06:57:00,
2013-02-08 02:02:00,5.0,-6.0,30.57,ESE,112,5.1,9.6,51,0.00,,,0.00,Rainwise IP-100,2013-02-08 07:02:00,
2013-02-08 02:07:00,4.9,-6.0,30.59,NE,45,6.3,8.6,50,0.00,,,0.00,Rainwise IP-100,2013-02-08 07:07:00,
2013-02-08 02:12:00,5.0,-6.0,30.60,East,90,4.7,7.7,52,0.00,,,0.00,Rainwise IP-100,2013-02-08 07:12:00,
2013-02-08 02:17:00,5.1,-6.0,30.60,ENE,67,7.7,9.1,54,0.00,,,0.00,Rainwise IP-100,2013-02-08 07:17:00,
2013-02-08 02:22:00,5.0,-6.0,30.61,ENE,67,7.0,9.6,53,0.00,,,0.00,Rainwise IP-100,2013-02-08 07:22:00,
2013-02-08 02:27:00,4.8,-6.0,30.59,ENE,67,3.7,9.3,52,0.00,,,0.00,Rainwise IP-100,2013-02-08 07:27:00,
2013-02-08 02:32:00,4.8,-6.0,30.58,ENE,67,4.0,11.2,52,0.00,,,0.00,Rainwise IP-100,2013-02-08 07:32:00,
2013-02-08 02:37:00,4.8,-6.0,30.60,ESE,112,0.0,6.8,52,0.00,,,0.00,Rainwise IP-100,2013-02-08 07:37:00,
2013-02-08 02:42:00,4.9,-6.0,30.60,ESE,112,4.2,8.9,53,0.00,,,0.00,Rainwise IP-100,2013-02-08 07:42:00,
2013-02-08 02:47:00,5.0,-6.0,30.58,ENE,67,0.0,7.5,54,0.00,,,0.00,Rainwise IP-100,2013-02-08 07:47:00,
2013-02-08 02:52:00,4.8,-6.0,30.58,NE,45,5.8,9.1,53,0.00,,,0.00,Rainwise IP-100,2013-02-08 07:52:00,
2013-02-08 02:57:00,4.5,-6.0,30.60,NE,45,0.0,7.7,54,0.00,,,0.00,Rainwise IP-100,2013-02-08 07:57:00,
2013-02-08 03:02:00,4.4,-6.0,30.59,NE,45,3.5,6.5,55,0.00,,,0.00,Rainwise IP-100,2013-02-08 08:02:00,
2013-02-08 03:07:00,4.4,-6.0,30.58,ENE,67,5.4,6.8,54,0.00,,,0.00,Rainwise IP-100,2013-02-08 08:07:00,
2013-02-08 03:12:00,4.6,-6.0,30.58,East,90,0.0,10.5,55,0.00,,,0.00,Rainwise IP-100,2013-02-08 08:12:00,
2013-02-08 03:17:00,4.8,-6.0,30.58,ENE,67,5.4,7.2,55,0.00,,,0.00,Rainwise IP-100,2013-02-08 08:17:00,
2013-02-08 03:22:00,4.6,-6.0,30.57,East,90,5.8,7.9,55,0.00,,,0.00,Rainwise IP-100,2013-02-08 08:22:00,
2013-02-08 03:27:00,4.4,-6.0,30.57,NE,45,4.9,8.6,56,0.00,,,0.00,Rainwise IP-100,2013-02-08 08:27:00,
2013-02-08 03:32:00,4.4,-6.0,30.56,East,90,4.9,6.8,57,0.00,,,0.00,Rainwise IP-100,2013-02-08 08:32:00,
2013-02-08 03:37:00,4.3,-6.0,30.59,North,0,4.0,8.6,56,0.00,,,0.00,Rainwise IP-100,2013-02-08 08:37:00,
2013-02-08 03:42:00,4.3,-6.0,30.56,ENE,67,2.1,7.5,56,0.00,,,0.00,Rainwise IP-100,2013-02-08 08:42:00,
2013-02-08 03:47:00,4.3,-6.0,30.57,ENE,67,3.7,6.8,56,0.00,,,0.00,Rainwise IP-100,2013-02-08 08:47:00,
2013-02-08 03:52:00,4.4,-6.0,30.57,ESE,112,2.8,5.1,57,0.00,,,0.00,Rainwise IP-100,2013-02-08 08:52:00,
2013-02-08 03:57:00,4.4,-6.0,30.57,East,90,3.5,8.9,58,0.00,,,0.00,Rainwise IP-100,2013-02-08 08:57:00,
2013-02-08 04:02:00,4.3,-6.0,30.57,East,90,2.1,9.3,59,0.00,,,0.00,Rainwise IP-100,2013-02-08 09:02:00,
2013-02-08 04:07:00,4.1,-6.0,30.56,East,90,2.3,8.6,59,0.00,,,0.00,Rainwise IP-100,2013-02-08 09:07:00,
2013-02-08 04:12:00,4.0,-6.0,30.57,East,90,4.2,7.9,59,0.00,,,0.00,Rainwise IP-100,2013-02-08 09:12:00,
2013-02-08 04:17:00,4.1,-6.0,30.56,ESE,112,4.0,7.5,59,0.00,,,0.00,Rainwise IP-100,2013-02-08 09:17:00,
2013-02-08 04:22:00,4.0,-6.0,30.57,East,90,4.9,7.2,59,0.00,,,0.00,Rainwise IP-100,2013-02-08 09:22:00,
2013-02-08 04:27:00,3.9,-6.0,30.57,East,90,4.4,10.5,58,0.00,,,0.00,Rainwise IP-100,2013-02-08 09:27:00,
2013-02-08 04:32:00,3.9,-6.0,30.56,ENE,67,6.5,9.1,58,0.00,,,0.00,Rainwise IP-100,2013-02-08 09:32:00,
2013-02-08 04:37:00,3.9,-6.0,30.57,ESE,112,5.1,10.7,57,0.00,,,0.00,Rainwise IP-100,2013-02-08 09:37:00,
2013-02-08 04:42:00,3.9,-6.0,30.57,ESE,112,6.3,9.3,58,0.00,,,0.00,Rainwise IP-100,2013-02-08 09:42:00,
2013-02-08 04:47:00,4.0,-6.0,30.56,ESE,112,4.2,11.7,58,0.00,,,0.00,Rainwise IP-100,2013-02-08 09:47:00,
2013-02-08 04:52:00,3.9,-6.0,30.55,East,90,7.9,9.3,58,0.00,,,0.00,Rainwise IP-100,2013-02-08 09:52:00,
2013-02-08 04:58:00,3.9,-6.0,30.54,East,90,9.1,9.1,58,0.00,,,0.00,Rainwise IP-100,2013-02-08 09:58:00,
2013-02-08 05:03:00,3.9,-6.0,30.55,East,90,1.2,10.0,59,0.00,,,0.00,Rainwise IP-100,2013-02-08 10:03:00,
2013-02-08 05:08:00,4.0,-6.0,30.57,NE,45,7.2,7.2,60,0.00,,,0.00,Rainwise IP-100,2013-02-08 10:08:00,
2013-02-08 05:13:00,4.0,-6.0,30.55,ENE,67,4.9,8.4,60,0.00,,,0.00,Rainwise IP-100,2013-02-08 10:13:00,
2013-02-08 05:18:00,4.0,-6.0,30.55,ENE,67,5.6,9.1,59,0.00,,,0.00,Rainwise IP-100,2013-02-08 10:18:00,
2013-02-08 05:23:00,4.0,-6.0,30.55,NNE,22,3.7,8.2,59,0.00,,,0.00,Rainwise IP-100,2013-02-08 10:23:00,
2013-02-08 05:28:00,4.0,-6.0,30.54,ENE,67,5.4,8.4,59,0.00,,,0.00,Rainwise IP-100,2013-02-08 10:28:00,
2013-02-08 05:33:00,4.0,-6.0,30.57,ESE,112,2.8,9.6,58,0.00,,,0.00,Rainwise IP-100,2013-02-08 10:33:00,
2013-02-08 05:38:00,4.1,-6.0,30.56,ESE,112,0.0,6.5,59,0.00,,,0.00,Rainwise IP-100,2013-02-08 10:38:00,
2013-02-08 05:43:00,4.2,-6.0,30.54,NE,45,3.3,5.8,60,0.00,,,0.00,Rainwise IP-100,2013-02-08 10:43:00,
2013-02-08 05:48:00,4.3,-6.0,30.55,NE,45,3.5,7.5,59,0.00,,,0.00,Rainwise IP-100,2013-02-08 10:48:00,
2013-02-08 05:53:00,4.3,-6.0,30.56,East,90,2.3,6.5,60,0.00,,,0.00,Rainwise IP-100,2013-02-08 10:53:00,
2013-02-08 05:58:00,4.4,-6.0,30.57,East,90,1.4,4.7,61,0.00,,,0.00,Rainwise IP-100,2013-02-08 10:58:00,
2013-02-08 06:03:00,4.6,0.0,30.52,NNE,22,1.6,3.3,61,0.00,,,0.00,Rainwise IP-100,2013-02-08 11:03:00,
2013-02-08 06:08:00,4.8,0.0,30.56,ESE,112,1.2,4.7,62,0.00,,,0.00,Rainwise IP-100,2013-02-08 11:08:00,
2013-02-08 06:13:00,4.9,0.0,30.55,NE,45,2.3,6.8,62,0.00,,,0.00,Rainwise IP-100,2013-02-08 11:13:00,
2013-02-08 06:18:00,5.1,0.0,30.56,NNE,22,0.0,6.3,62,0.00,,,0.00,Rainwise IP-100,2013-02-08 11:18:00,
2013-02-08 06:23:00,5.4,0.0,30.56,NE,45,4.4,4.4,63,0.00,,,0.00,Rainwise IP-100,2013-02-08 11:23:00,
2013-02-08 06:28:00,5.5,0.0,30.56,East,90,0.0,7.7,64,0.00,,,0.00,Rainwise IP-100,2013-02-08 11:28:00,
2013-02-08 06:33:00,5.6,0.0,30.56,East,90,0.0,5.1,64,0.00,,,0.00,Rainwise IP-100,2013-02-08 11:33:00,
2013-02-08 06:38:00,5.8,0.0,30.55,SE,135,1.6,4.2,64,0.00,,,0.00,Rainwise IP-100,2013-02-08 11:38:00,
2013-02-08 06:43:00,5.9,0.0,30.55,SE,135,0.0,3.0,63,0.00,,,0.00,Rainwise IP-100,2013-02-08 11:43:00,
2013-02-08 06:48:00,6.0,0.0,30.56,ENE,67,0.0,2.3,63,0.00,,,0.00,Rainwise IP-100,2013-02-08 11:48:00,
2013-02-08 06:53:00,5.9,0.0,30.58,NW,315,3.5,3.7,63,0.00,,,0.00,Rainwise IP-100,2013-02-08 11:53:00,
2013-02-08 06:58:00,5.9,0.0,30.55,ENE,67,2.3,4.4,64,0.00,,,0.00,Rainwise IP-100,2013-02-08 11:58:00,
2013-02-08 07:03:00,6.1,0.0,30.55,NNE,22,0.0,5.4,64,0.00,,,0.00,Rainwise IP-100,2013-02-08 12:03:00,
2013-02-08 07:08:00,6.3,0.0,30.55,NNE,22,1.4,3.5,64,0.00,,,0.00,Rainwise IP-100,2013-02-08 12:08:00,
2013-02-08 07:13:00,6.5,0.0,30.55,NE,45,2.3,6.3,65,0.00,,,0.00,Rainwise IP-100,2013-02-08 12:13:00,
2013-02-08 07:18:00,6.6,0.0,30.55,ENE,67,2.8,4.9,65,0.00,,,0.00,Rainwise IP-100,2013-02-08 12:18:00,
2013-02-08 07:23:00,6.7,0.0,30.52,NE,45,0.0,7.9,67,0.00,,,0.00,Rainwise IP-100,2013-02-08 12:23:00,
2013-02-08 07:28:00,6.7,0.0,30.56,NNE,22,0.0,8.2,69,0.00,,,0.00,Rainwise IP-100,2013-02-08 12:28:00,
2013-02-08 07:33:00,6.8,0.0,30.53,ENE,67,7.9,7.9,69,0.00,,,0.00,Rainwise IP-100,2013-02-08 12:33:00,
2013-02-08 07:38:00,6.7,0.0,30.55,NNE,22,0.0,7.9,70,0.00,,,0.00,Rainwise IP-100,2013-02-08 12:38:00,
2013-02-08 07:43:00,6.7,0.0,30.54,NE,45,4.0,5.4,71,0.00,,,0.00,Rainwise IP-100,2013-02-08 12:43:00,
2013-02-08 07:48:00,6.7,0.0,30.55,NNE,22,1.2,7.0,72,0.00,,,0.00,Rainwise IP-100,2013-02-08 12:48:00,
2013-02-08 07:53:00,6.7,0.0,30.53,NNE,22,5.4,5.4,72,0.00,,,0.00,Rainwise IP-100,2013-02-08 12:53:00,
2013-02-08 07:58:00,6.7,0.0,30.55,North,0,6.1,6.8,72,0.00,,,0.00,Rainwise IP-100,2013-02-08 12:58:00,
2013-02-08 08:03:00,6.7,0.0,30.54,NNW,337,3.3,6.8,71,0.00,,,0.00,Rainwise IP-100,2013-02-08 13:03:00,
2013-02-08 08:08:00,6.7,0.0,30.53,NNE,22,3.3,6.3,70,0.00,,,0.00,Rainwise IP-100,2013-02-08 13:08:00,
2013-02-08 08:13:00,6.6,0.0,30.55,North,0,3.7,6.3,70,0.00,,,0.00,Rainwise IP-100,2013-02-08 13:13:00,
2013-02-08 08:18:00,6.7,0.0,30.53,East,90,0.0,5.8,71,0.00,,,0.00,Rainwise IP-100,2013-02-08 13:18:00,
2013-02-08 08:23:00,7.0,0.0,30.51,NNW,337,1.4,4.4,72,0.00,,,0.00,Rainwise IP-100,2013-02-08 13:23:00,
2013-02-08 08:28:00,7.1,0.0,30.52,NW,315,0.0,4.7,73,0.00,,,0.00,Rainwise IP-100,2013-02-08 13:28:00,
2013-02-08 08:33:00,7.3,0.0,30.53,ENE,67,3.5,3.5,74,0.00,,,0.00,Rainwise IP-100,2013-02-08 13:33:00,
2013-02-08 08:38:00,7.4,4.0,30.54,NNE,22,2.8,6.1,75,0.00,,,0.00,Rainwise IP-100,2013-02-08 13:38:00,
2013-02-08 08:43:00,7.5,4.0,30.52,North,0,2.8,4.4,75,0.00,,,0.00,Rainwise IP-100,2013-02-08 13:43:00,
2013-02-08 08:48:00,7.7,4.0,30.53,NNE,22,2.8,5.6,76,0.00,,,0.00,Rainwise IP-100,2013-02-08 13:48:00,
2013-02-08 08:53:00,7.9,4.0,30.50,North,0,2.8,4.9,76,0.00,,,0.00,Rainwise IP-100,2013-02-08 13:53:00,
2013-02-08 08:58:00,8.3,4.0,30.54,NNE,22,2.8,5.6,77,0.00,,,0.00,Rainwise IP-100,2013-02-08 13:58:00,
2013-02-08 09:03:00,8.4,4.0,30.54,East,90,4.0,4.0,78,0.00,,,0.00,Rainwise IP-100,2013-02-08 14:03:00,
2013-02-08 09:08:00,8.5,8.0,30.51,NNE,22,5.8,6.3,79,0.00,,,0.00,Rainwise IP-100,2013-02-08 14:08:00,
2013-02-08 09:13:00,8.7,8.0,30.52,East,90,1.6,6.3,80,0.00,,,0.00,Rainwise IP-100,2013-02-08 14:13:00,
2013-02-08 09:21:00,8.9,8.0,30.53,East,90,1.6,3.7,80,0.00,,,0.00,Rainwise IP-100,2013-02-08 14:21:00,
2013-02-08 09:26:00,9.5,8.0,30.51,NNE,22,0.0,7.9,82,0.00,,,0.00,Rainwise IP-100,2013-02-08 14:26:00,
2013-02-08 09:31:00,9.7,8.0,30.52,NE,45,0.0,5.8,82,0.00,,,0.00,Rainwise IP-100,2013-02-08 14:31:00,
2013-02-08 09:36:00,9.9,8.0,30.53,NNE,22,4.4,4.9,83,0.00,,,0.00,Rainwise IP-100,2013-02-08 14:36:00,
2013-02-08 09:41:00,10.0,8.0,30.53,ESE,112,0.0,4.7,84,0.00,,,0.00,Rainwise IP-100,2013-02-08 14:41:00,
2013-02-08 09:46:00,10.2,8.0,30.51,ESE,112,0.0,2.6,84,0.00,,,0.00,Rainwise IP-100,2013-02-08 14:46:00,
2013-02-08 09:51:00,10.5,8.0,30.52,East,90,2.1,6.5,85,0.00,,,0.00,Rainwise IP-100,2013-02-08 14:51:00,
2013-02-08 09:56:00,10.8,8.0,30.50,NNE,22,4.0,4.0,85,0.00,,,0.00,Rainwise IP-100,2013-02-08 14:56:00,
2013-02-08 10:01:00,11.2,8.0,30.51,NNE,22,0.0,6.3,86,0.00,,,0.00,Rainwise IP-100,2013-02-08 15:01:00,
2013-02-08 10:06:00,11.3,8.0,30.52,East,90,2.1,4.7,86,0.00,,,0.00,Rainwise IP-100,2013-02-08 15:06:00,
2013-02-08 10:11:00,11.7,11.0,30.51,NNE,22,0.0,2.1,86,0.00,,,0.00,Rainwise IP-100,2013-02-08 15:11:00,
2013-02-08 10:16:00,12.2,11.0,30.52,ENE,67,4.4,6.8,86,0.00,,,0.00,Rainwise IP-100,2013-02-08 15:16:00,
2013-02-08 10:21:00,12.6,11.0,30.54,ESE,112,1.9,4.4,87,0.00,,,0.00,Rainwise IP-100,2013-02-08 15:21:00,
2013-02-08 10:26:00,12.7,11.0,30.51,ENE,67,0.0,5.4,87,0.00,,,0.00,Rainwise IP-100,2013-02-08 15:26:00,
2013-02-08 10:31:00,13.0,11.0,30.51,ENE,67,5.1,5.1,87,0.00,,,0.00,Rainwise IP-100,2013-02-08 15:31:00,
2013-02-08 10:36:00,13.2,11.0,30.51,East,90,0.0,5.1,87,0.00,,,0.00,Rainwise IP-100,2013-02-08 15:36:00,
2013-02-08 10:41:00,13.3,11.0,30.52,East,90,1.2,3.3,87,0.00,,,0.00,Rainwise IP-100,2013-02-08 15:41:00,
2013-02-08 10:46:00,13.3,11.0,30.49,East,90,2.1,7.0,86,0.00,,,0.00,Rainwise IP-100,2013-02-08 15:46:00,
2013-02-08 10:51:00,13.1,11.0,30.50,ENE,67,3.5,6.1,86,0.00,,,0.00,Rainwise IP-100,2013-02-08 15:51:00,
2013-02-08 10:56:00,13.3,11.0,30.49,ENE,67,3.7,7.7,86,0.00,,,0.00,Rainwise IP-100,2013-02-08 15:56:00,
2013-02-08 11:01:00,13.7,11.0,30.49,East,90,2.1,6.5,86,0.00,,,0.00,Rainwise IP-100,2013-02-08 16:01:00,
2013-02-08 11:06:00,14.0,11.0,30.46,ENE,67,2.8,6.8,86,0.00,,,0.00,Rainwise IP-100,2013-02-08 16:06:00,
2013-02-08 11:11:00,14.1,11.0,30.49,East,90,3.7,8.9,85,0.00,,,0.00,Rainwise IP-100,2013-02-08 16:11:00,
2013-02-08 11:16:00,14.1,11.0,30.48,East,90,5.4,7.2,85,0.00,,,0.00,Rainwise IP-100,2013-02-08 16:16:00,
2013-02-08 11:21:00,14.4,11.0,30.48,East,90,3.3,10.3,85,0.00,,,0.00,Rainwise IP-100,2013-02-08 16:21:00,
2013-02-08 11:26:00,14.6,14.0,30.48,ENE,67,8.6,8.6,85,0.00,,,0.00,Rainwise IP-100,2013-02-08 16:26:00,
2013-02-08 11:31:00,14.6,14.0,30.49,ENE,67,6.3,13.5,85,0.00,,,0.00,Rainwise IP-100,2013-02-08 16:31:00,
2013-02-08 11:36:00,14.8,14.0,30.45,ESE,112,4.2,7.7,85,0.00,,,0.00,Rainwise IP-100,2013-02-08 16:36:00,
2013-02-08 11:41:00,14.9,14.0,30.46,ESE,112,5.6,9.8,84,0.00,,,0.00,Rainwise IP-100,2013-02-08 16:41:00,
2013-02-08 11:46:00,15.2,14.0,30.50,ENE,67,5.8,11.9,84,0.00,,,0.00,Rainwise IP-100,2013-02-08 16:46:00,
2013-02-08 11:51:00,15.5,14.0,30.43,ENE,67,7.7,11.7,85,0.00,,,0.00,Rainwise IP-100,2013-02-08 16:51:00,
2013-02-08 11:56:00,15.7,14.0,30.45,East,90,8.6,12.8,84,0.00,,,0.00,Rainwise IP-100,2013-02-08 16:56:00,
2013-02-08 12:01:00,15.7,14.0,30.44,ESE,112,5.4,11.4,84,0.00,,,0.00,Rainwise IP-100,2013-02-08 17:01:00,
2013-02-08 12:06:00,15.8,11.0,30.47,ENE,67,7.7,10.0,83,0.00,,,0.00,Rainwise IP-100,2013-02-08 17:06:00,
2013-02-08 12:11:00,16.0,11.0,30.47,SE,135,6.8,9.6,83,0.00,,,0.00,Rainwise IP-100,2013-02-08 17:11:00,
2013-02-08 12:16:00,16.4,14.0,30.45,East,90,0.0,7.9,84,0.00,,,0.00,Rainwise IP-100,2013-02-08 17:16:00,
2013-02-08 12:21:00,16.8,14.0,30.45,SE,135,5.8,8.6,84,0.00,,,0.00,Rainwise IP-100,2013-02-08 17:21:00,
2013-02-08 12:26:00,16.8,14.0,30.42,East,90,7.9,11.4,83,0.00,,,0.00,Rainwise IP-100,2013-02-08 17:26:00,
2013-02-08 12:31:00,17.0,14.0,30.44,East,90,6.3,10.5,83,0.00,,,0.00,Rainwise IP-100,2013-02-08 17:31:00,
2013-02-08 12:36:00,17.1,14.0,30.42,NE,45,7.5,10.5,84,0.00,,,0.00,Rainwise IP-100,2013-02-08 17:36:00,
2013-02-08 12:41:00,17.3,14.0,30.43,ESE,112,7.0,10.5,84,0.00,,,0.00,Rainwise IP-100,2013-02-08 17:41:00,
2013-02-08 12:46:00,17.4,14.0,30.44,ENE,67,8.9,13.1,83,0.00,,,0.00,Rainwise IP-100,2013-02-08 17:46:00,
2013-02-08 12:51:00,17.4,14.0,30.45,ESE,112,6.1,12.4,83,0.00,,,0.00,Rainwise IP-100,2013-02-08 17:51:00,
2013-02-08 12:56:00,17.6,14.0,30.41,ESE,112,3.0,15.6,84,0.00,,,0.00,Rainwise IP-100,2013-02-08 17:56:00,
2013-02-08 13:01:00,17.6,14.0,30.42,ESE,112,8.2,14.2,84,0.00,,,0.00,Rainwise IP-100,2013-02-08 18:01:00,
2013-02-08 13:06:00,17.6,14.0,30.42,ESE,112,6.8,20.1,83,0.00,,,0.00,Rainwise IP-100,2013-02-08 18:06:00,
2013-02-08 13:11:00,17.6,14.0,30.41,ENE,67,6.3,15.9,83,0.00,,,0.00,Rainwise IP-100,2013-02-08 18:11:00,
2013-02-08 13:16:00,17.8,14.0,30.39,ESE,112,7.7,17.7,84,0.00,,,0.00,Rainwise IP-100,2013-02-08 18:16:00,
2013-02-08 13:21:00,18.0,14.0,30.37,ENE,67,5.1,14.2,84,0.00,,,0.00,Rainwise IP-100,2013-02-08 18:21:00,
2013-02-08 13:26:00,18.1,16.0,30.41,ENE,67,5.6,11.0,85,0.00,,,0.00,Rainwise IP-100,2013-02-08 18:26:00,
2013-02-08 13:31:00,18.3,16.0,30.41,East,90,11.0,16.3,85,0.00,,,0.00,Rainwise IP-100,2013-02-08 18:31:00,
2013-02-08 13:36:00,18.5,16.0,30.42,ESE,112,4.9,15.4,85,0.00,,,0.00,Rainwise IP-100,2013-02-08 18:36:00,
2013-02-08 13:41:00,18.6,16.0,30.41,ESE,112,11.2,17.0,85,0.00,,,0.00,Rainwise IP-100,2013-02-08 18:41:00,
2013-02-08 13:46:00,18.8,16.0,30.42,ESE,112,8.9,17.5,85,0.00,,,0.00,Rainwise IP-100,2013-02-08 18:46:00,
2013-02-08 13:51:00,18.8,16.0,30.39,ENE,67,10.0,15.6,85,0.00,,,0.00,Rainwise IP-100,2013-02-08 18:51:00,
2013-02-08 13:56:00,18.7,16.0,30.41,East,90,15.2,16.6,85,0.00,,,0.00,Rainwise IP-100,2013-02-08 18:56:00,
2013-02-08 14:01:00,18.7,16.0,30.39,SE,135,3.7,16.8,85,0.00,,,0.00,Rainwise IP-100,2013-02-08 19:01:00,
2013-02-08 14:06:00,18.8,16.0,30.38,ESE,112,3.5,21.7,84,0.00,,,0.00,Rainwise IP-100,2013-02-08 19:06:00,
2013-02-08 14:11:00,19.1,16.0,30.39,ESE,112,3.7,18.7,85,0.00,,,0.00,Rainwise IP-100,2013-02-08 19:11:00,
2013-02-08 14:16:00,19.2,16.0,30.39,East,90,14.2,18.4,85,0.00,,,0.00,Rainwise IP-100,2013-02-08 19:16:00,
2013-02-08 14:21:00,19.0,16.0,30.39,East,90,8.2,19.4,85,0.00,,,0.00,Rainwise IP-100,2013-02-08 19:21:00,
2013-02-08 14:26:00,18.9,16.0,30.38,ENE,67,9.6,16.6,85,0.00,,,0.00,Rainwise IP-100,2013-02-08 19:26:00,
2013-02-08 14:31:00,18.9,16.0,30.40,ESE,112,11.2,17.7,85,0.00,,,0.00,Rainwise IP-100,2013-02-08 19:31:00,
2013-02-08 14:36:00,18.9,16.0,30.37,ENE,67,11.0,17.3,85,0.00,,,0.00,Rainwise IP-100,2013-02-08 19:36:00,
2013-02-08 14:41:00,18.9,16.0,30.40,ESE,112,5.1,17.3,86,0.00,,,0.00,Rainwise IP-100,2013-02-08 19:41:00,
2013-02-08 14:46:00,18.9,16.0,30.39,ESE,112,3.5,16.8,86,0.00,,,0.00,Rainwise IP-100,2013-02-08 19:46:00,
2013-02-08 14:51:00,18.8,16.0,30.37,East,90,5.8,16.6,86,0.00,,,0.00,Rainwise IP-100,2013-02-08 19:51:00,
2013-02-08 14:56:00,18.9,16.0,30.34,ENE,67,9.6,16.3,86,0.00,,,0.00,Rainwise IP-100,2013-02-08 19:56:00,
2013-02-08 15:01:00,19.0,16.0,30.39,ENE,67,8.2,16.3,86,0.00,,,0.00,Rainwise IP-100,2013-02-08 20:01:00,
2013-02-08 15:06:00,18.9,16.0,30.36,East,90,9.3,19.8,86,0.00,,,0.00,Rainwise IP-100,2013-02-08 20:06:00,
2013-02-08 15:11:00,19.0,18.0,30.36,East,90,14.9,16.1,87,0.00,,,0.00,Rainwise IP-100,2013-02-08 20:11:00,
2013-02-08 15:16:00,19.0,18.0,30.36,ENE,67,11.4,18.4,87,0.00,,,0.00,Rainwise IP-100,2013-02-08 20:16:00,
2013-02-08 15:21:00,19.0,16.0,30.36,ENE,67,14.0,19.1,86,0.00,,,0.00,Rainwise IP-100,2013-02-08 20:21:00,
2013-02-08 15:26:00,19.0,16.0,30.34,ENE,67,12.1,20.3,86,0.00,,,0.00,Rainwise IP-100,2013-02-08 20:26:00,
2013-02-08 15:31:00,18.9,16.0,30.33,ESE,112,8.4,18.4,86,0.00,,,0.00,Rainwise IP-100,2013-02-08 20:31:00,
2013-02-08 15:36:00,18.8,16.0,30.32,ENE,67,5.4,19.6,86,0.00,,,0.00,Rainwise IP-100,2013-02-08 20:36:00,
2013-02-08 15:41:00,18.8,16.0,30.31,East,90,12.4,20.5,86,0.00,,,0.00,Rainwise IP-100,2013-02-08 20:41:00,
2013-02-08 15:46:00,18.7,16.0,30.32,ESE,112,6.3,20.3,86,0.00,,,0.00,Rainwise IP-100,2013-02-08 20:46:00,
2013-02-08 15:51:00,18.7,16.0,30.31,East,90,7.5,16.1,86,0.00,,,0.00,Rainwise IP-100,2013-02-08 20:51:00,
2013-02-08 15:56:00,18.8,16.0,30.32,East,90,7.9,15.6,86,0.00,,,0.00,Rainwise IP-100,2013-02-08 20:56:00,
2013-02-08 16:01:00,18.8,16.0,30.33,ENE,67,14.5,16.6,86,0.00,,,0.00,Rainwise IP-100,2013-02-08 21:01:00,
2013-02-08 16:06:00,18.8,16.0,30.33,ENE,67,15.2,19.4,86,0.00,,,0.00,Rainwise IP-100,2013-02-08 21:06:00,
2013-02-08 16:11:00,18.7,16.0,30.30,East,90,9.6,17.3,86,0.00,,,0.00,Rainwise IP-100,2013-02-08 21:11:00,
2013-02-08 16:16:00,18.5,16.0,30.31,ESE,112,5.8,17.7,86,0.00,,,0.00,Rainwise IP-100,2013-02-08 21:16:00,
2013-02-08 16:21:00,18.5,16.0,30.31,ESE,112,14.5,15.2,86,0.00,,,0.00,Rainwise IP-100,2013-02-08 21:21:00,
2013-02-08 16:26:00,18.6,18.0,30.32,NE,45,6.8,22.2,87,0.00,,,0.00,Rainwise IP-100,2013-02-08 21:26:00,
2013-02-08 16:31:00,18.6,18.0,30.32,ENE,67,5.6,17.7,87,0.00,,,0.00,Rainwise IP-100,2013-02-08 21:31:00,
2013-02-08 16:36:00,18.7,18.0,30.31,NE,45,7.2,16.8,87,0.00,,,0.00,Rainwise IP-100,2013-02-08 21:36:00,
2013-02-08 16:41:00,18.7,18.0,30.30,ENE,67,14.9,18.2,87,0.00,,,0.00,Rainwise IP-100,2013-02-08 21:41:00,
2013-02-08 16:46:00,18.8,18.0,30.32,ENE,67,1.6,19.1,87,0.00,,,0.00,Rainwise IP-100,2013-02-08 21:46:00,
2013-02-08 16:51:00,18.8,18.0,30.29,East,90,7.0,15.4,88,0.00,,,0.00,Rainwise IP-100,2013-02-08 21:51:00,
2013-02-08 16:56:00,18.9,18.0,30.29,ESE,112,11.2,17.3,87,0.00,,,0.00,Rainwise IP-100,2013-02-08 21:56:00,
2013-02-08 17:01:00,19.1,18.0,30.29,ENE,67,14.2,21.5,87,0.00,,,0.00,Rainwise IP-100,2013-02-08 22:01:00,
2013-02-08 17:06:00,19.2,16.0,30.29,East,90,6.1,18.9,86,0.00,,,0.00,Rainwise IP-100,2013-02-08 22:06:00,
2013-02-08 17:11:00,19.2,16.0,30.27,ENE,67,12.6,20.5,85,0.00,,,0.00,Rainwise IP-100,2013-02-08 22:11:00,
2013-02-08 17:16:00,19.2,16.0,30.29,East,90,7.9,17.7,85,0.00,,,0.00,Rainwise IP-100,2013-02-08 22:16:00,
2013-02-08 17:21:00,19.2,16.0,30.27,ESE,112,3.3,19.6,85,0.00,,,0.00,Rainwise IP-100,2013-02-08 22:21:00,
2013-02-08 17:26:00,19.4,16.0,30.27,SE,135,9.6,16.6,85,0.00,,,0.00,Rainwise IP-100,2013-02-08 22:26:00,
2013-02-08 17:31:00,19.4,16.0,30.28,East,90,11.2,21.5,86,0.00,,,0.00,Rainwise IP-100,2013-02-08 22:31:00,
2013-02-08 17:36:00,19.2,16.0,30.25,East,90,8.9,18.2,86,0.00,,,0.00,Rainwise IP-100,2013-02-08 22:36:00,
2013-02-08 17:41:00,19.1,16.0,30.25,ENE,67,11.7,17.7,85,0.00,,,0.00,Rainwise IP-100,2013-02-08 22:41:00,
2013-02-08 17:46:00,19.2,16.0,30.27,ESE,112,10.7,21.9,85,0.00,,,0.00,Rainwise IP-100,2013-02-08 22:46:00,
2013-02-08 17:51:00,19.1,16.0,30.27,ESE,112,15.2,19.4,86,0.00,,,0.00,Rainwise IP-100,2013-02-08 22:51:00,
2013-02-08 17:56:00,19.1,16.0,30.25,ENE,67,6.5,21.9,86,0.00,,,0.00,Rainwise IP-100,2013-02-08 22:56:00,
2013-02-08 18:01:00,19.0,16.0,30.25,ENE,67,11.4,18.7,86,0.00,,,0.00,Rainwise IP-100,2013-02-08 23:01:00,
2013-02-08 18:06:00,18.9,16.0,30.26,East,90,14.0,21.0,86,0.00,,,0.00,Rainwise IP-100,2013-02-08 23:06:00,
2013-02-08 18:11:00,18.8,18.0,30.26,East,90,12.6,21.5,87,0.00,,,0.00,Rainwise IP-100,2013-02-08 23:11:00,
2013-02-08 18:16:00,18.9,18.0,30.25,ENE,67,13.5,18.7,87,0.00,,,0.00,Rainwise IP-100,2013-02-08 23:16:00,
2013-02-08 18:21:00,18.8,18.0,30.24,ENE,67,8.6,19.1,87,0.00,,,0.00,Rainwise IP-100,2013-02-08 23:21:00,
2013-02-08 18:26:00,18.9,18.0,30.23,ENE,67,12.1,20.3,87,0.00,,,0.00,Rainwise IP-100,2013-02-08 23:26:00,
2013-02-08 18:31:00,18.9,18.0,30.23,East,90,11.7,20.3,87,0.00,,,0.00,Rainwise IP-100,2013-02-08 23:31:00,
2013-02-08 18:36:00,18.9,18.0,30.24,East,90,4.4,19.1,88,0.00,,,0.00,Rainwise IP-100,2013-02-08 23:36:00,
2013-02-08 18:41:00,18.8,18.0,30.21,ENE,67,3.0,17.7,88,0.00,,,0.00,Rainwise IP-100,2013-02-08 23:41:00,
2013-02-08 18:46:00,18.8,18.0,30.21,ENE,67,11.4,19.4,87,0.00,,,0.00,Rainwise IP-100,2013-02-08 23:46:00,
2013-02-08 18:51:00,18.9,18.0,30.19,NE,45,11.7,19.8,87,0.00,,,0.00,Rainwise IP-100,2013-02-08 23:51:00,
2013-02-08 18:56:00,18.9,18.0,30.20,ENE,67,7.7,24.9,87,0.00,,,0.00,Rainwise IP-100,2013-02-08 23:56:00,
2013-02-08 19:01:00,18.9,18.0,30.23,SE,135,11.0,19.8,87,0.00,,,0.00,Rainwise IP-100,2013-02-09 00:01:00,
2013-02-08 19:06:00,18.8,18.0,30.19,East,90,2.6,20.5,87,0.00,,,0.00,Rainwise IP-100,2013-02-09 00:06:00,
2013-02-08 19:11:00,18.6,18.0,30.20,ENE,67,13.8,22.4,87,0.00,,,0.00,Rainwise IP-100,2013-02-09 00:11:00,
2013-02-08 19:16:00,18.4,16.0,30.21,ENE,67,14.2,22.4,87,0.00,,,0.00,Rainwise IP-100,2013-02-09 00:16:00,
2013-02-08 19:21:00,18.3,16.0,30.21,ENE,67,9.3,19.4,87,0.00,,,0.00,Rainwise IP-100,2013-02-09 00:21:00,
2013-02-08 19:26:00,18.3,16.0,30.20,ENE,67,11.4,18.4,88,0.00,,,0.00,Rainwise IP-100,2013-02-09 00:26:00,
2013-02-08 19:31:00,18.2,16.0,30.16,ENE,67,14.0,20.3,88,0.00,,,0.00,Rainwise IP-100,2013-02-09 00:31:00,
2013-02-08 19:36:00,18.0,16.0,30.20,East,90,13.3,25.4,88,0.00,,,0.00,Rainwise IP-100,2013-02-09 00:36:00,
2013-02-08 19:41:00,17.9,16.0,30.16,East,90,13.8,23.8,88,0.00,,,0.00,Rainwise IP-100,2013-02-09 00:41:00,
2013-02-08 19:46:00,17.8,16.0,30.17,ENE,67,3.3,20.3,88,0.00,,,0.00,Rainwise IP-100,2013-02-09 00:46:00,
2013-02-08 19:51:00,17.6,16.0,30.15,SSE,157,11.0,23.1,88,0.00,,,0.00,Rainwise IP-100,2013-02-09 00:51:00,
2013-02-08 19:56:00,17.5,16.0,30.17,ESE,112,5.6,20.3,88,0.00,,,0.00,Rainwise IP-100,2013-02-09 00:56:00,
2013-02-08 20:01:00,17.4,16.0,30.16,East,90,8.4,20.1,88,0.00,,,0.00,Rainwise IP-100,2013-02-09 01:01:00,
2013-02-08 20:06:00,17.3,16.0,30.15,ESE,112,7.2,21.2,88,0.00,,,0.00,Rainwise IP-100,2013-02-09 01:06:00,
2013-02-08 20:11:00,17.1,16.0,30.15,ENE,67,6.8,20.3,88,0.00,,,0.00,Rainwise IP-100,2013-02-09 01:11:00,
2013-02-08 20:16:00,17.0,16.0,30.17,East,90,14.2,22.2,89,0.00,,,0.00,Rainwise IP-100,2013-02-09 01:16:00,
2013-02-08 20:21:00,17.0,16.0,30.16,ENE,67,5.1,20.3,89,0.00,,,0.00,Rainwise IP-100,2013-02-09 01:21:00,
2013-02-08 20:26:00,16.9,16.0,30.14,ENE,67,5.4,18.2,89,0.00,,,0.00,Rainwise IP-100,2013-02-09 01:26:00,
2013-02-08 20:31:00,16.7,16.0,30.13,ENE,67,10.5,21.0,89,0.00,,,0.00,Rainwise IP-100,2013-02-09 01:31:00,
2013-02-08 20:36:00,16.5,16.0,30.14,ENE,67,23.3,23.3,90,0.00,,,0.00,Rainwise IP-100,2013-02-09 01:36:00,
2013-02-08 20:41:00,16.4,14.0,30.16,NE,45,10.0,23.3,90,0.00,,,0.00,Rainwise IP-100,2013-02-09 01:41:00,
2013-02-08 20:46:00,16.3,14.0,30.12,NNE,22,13.5,18.9,91,0.00,,,0.00,Rainwise IP-100,2013-02-09 01:46:00,
2013-02-08 20:51:00,16.2,14.0,30.14,ENE,67,9.8,21.5,91,0.00,,,0.00,Rainwise IP-100,2013-02-09 01:51:00,
2013-02-08 20:56:00,16.1,14.0,30.10,East,90,8.9,20.1,91,0.00,,,0.00,Rainwise IP-100,2013-02-09 01:56:00,
2013-02-08 21:01:00,15.9,14.0,30.13,East,90,16.6,21.5,91,0.00,,,0.00,Rainwise IP-100,2013-02-09 02:01:00,
2013-02-08 21:06:00,15.8,14.0,30.11,NNE,22,6.3,21.7,92,0.00,,,0.00,Rainwise IP-100,2013-02-09 02:06:00,
2013-02-08 21:11:00,15.8,14.0,30.10,ENE,67,5.6,21.2,92,0.00,,,0.00,Rainwise IP-100,2013-02-09 02:11:00,
2013-02-08 21:16:00,15.7,14.0,30.10,NE,45,13.3,21.2,92,0.00,,,0.00,Rainwise IP-100,2013-02-09 02:16:00,
2013-02-08 21:21:00,15.5,14.0,30.09,East,90,12.1,21.2,92,0.00,,,0.00,Rainwise IP-100,2013-02-09 02:21:00,
2013-02-08 21:26:00,15.4,14.0,30.09,ENE,67,8.9,23.1,92,0.00,,,0.00,Rainwise IP-100,2013-02-09 02:26:00,
2013-02-08 21:31:00,15.2,14.0,30.06,East,90,9.6,21.9,91,0.00,,,0.00,Rainwise IP-100,2013-02-09 02:31:00,
2013-02-08 21:36:00,15.3,14.0,30.09,NNE,22,5.8,24.0,92,0.00,,,0.00,Rainwise IP-100,2013-02-09 02:36:00,
2013-02-08 21:41:00,15.2,14.0,30.08,ENE,67,10.3,22.2,92,0.00,,,0.00,Rainwise IP-100,2013-02-09 02:41:00,
2013-02-08 21:46:00,15.0,14.0,30.04,ENE,67,10.0,20.8,92,0.00,,,0.00,Rainwise IP-100,2013-02-09 02:46:00,
2013-02-08 21:51:00,15.0,14.0,30.06,East,90,7.5,23.1,92,0.00,,,0.00,Rainwise IP-100,2013-02-09 02:51:00,
2013-02-08 21:56:00,15.0,14.0,30.03,East,90,15.4,20.5,92,0.00,,,0.00,Rainwise IP-100,2013-02-09 02:56:00,
2013-02-08 22:01:00,14.8,14.0,30.05,NNE,22,7.0,21.0,92,0.00,,,0.00,Rainwise IP-100,2013-02-09 03:01:00,
2013-02-08 22:06:00,14.8,14.0,30.06,East,90,4.9,18.4,92,0.00,,,0.00,Rainwise IP-100,2013-02-09 03:06:00,
2013-02-08 22:11:00,15.1,14.0,30.04,ESE,112,9.6,24.0,93,0.00,,,0.00,Rainwise IP-100,2013-02-09 03:11:00,
2013-02-08 22:16:00,15.1,14.0,30.03,NE,45,22.6,22.6,93,0.00,,,0.00,Rainwise IP-100,2013-02-09 03:16:00,
2013-02-08 22:21:00,14.9,14.0,30.03,NNE,22,20.3,25.6,93,0.00,,,0.00,Rainwise IP-100,2013-02-09 03:21:00,
2013-02-08 22:26:00,14.8,14.0,30.02,NNE,22,21.0,29.8,93,0.00,,,0.00,Rainwise IP-100,2013-02-09 03:26:00,
2013-02-08 22:31:00,14.9,14.0,29.99,ENE,67,18.4,26.8,93,0.00,,,0.00,Rainwise IP-100,2013-02-09 03:31:00,
2013-02-08 22:36:00,14.9,14.0,30.02,ENE,67,14.0,23.8,93,0.00,,,0.00,Rainwise IP-100,2013-02-09 03:36:00,
2013-02-08 22:41:00,14.8,14.0,29.98,NE,45,17.5,25.6,93,0.00,,,0.00,Rainwise IP-100,2013-02-09 03:41:00,
2013-02-08 22:46:00,14.7,14.0,30.01,NNW,337,13.3,21.5,93,0.00,,,0.00,Rainwise IP-100,2013-02-09 03:46:00,
2013-02-08 22:51:00,14.6,14.0,30.00,ENE,67,12.1,24.2,93,0.00,,,0.00,Rainwise IP-100,2013-02-09 03:51:00,
2013-02-08 22:56:00,14.5,14.0,29.98,NNE,22,6.8,24.7,93,0.00,,,0.00,Rainwise IP-100,2013-02-09 03:56:00,
2013-02-08 23:01:00,14.5,14.0,30.00,ENE,67,8.4,25.6,93,0.00,,,0.00,Rainwise IP-100,2013-02-09 04:01:00,
2013-02-08 23:06:00,14.6,14.0,29.95,NNE,22,5.4,22.4,93,0.00,,,0.00,Rainwise IP-100,2013-02-09 04:06:00,
2013-02-08 23:11:00,14.5,14.0,29.95,NE,45,7.2,24.5,93,0.00,,,0.00,Rainwise IP-100,2013-02-09 04:11:00,
2013-02-08 23:16:00,14.5,14.0,29.97,ENE,67,7.9,24.9,93,0.00,,,0.00,Rainwise IP-100,2013-02-09 04:16:00,
2013-02-08 23:21:00,14.7,14.0,29.98,ENE,67,20.1,21.0,93,0.00,,,0.00,Rainwise IP-100,2013-02-09 04:21:00,
2013-02-08 23:26:00,14.6,14.0,29.95,North,0,8.6,23.8,93,0.00,,,0.00,Rainwise IP-100,2013-02-09 04:26:00,
2013-02-08 23:31:00,14.5,14.0,29.94,NE,45,22.4,27.5,93,0.00,,,0.00,Rainwise IP-100,2013-02-09 04:31:00,
2013-02-08 23:36:00,14.5,14.0,29.95,NNE,22,14.9,22.4,94,0.00,,,0.00,Rainwise IP-100,2013-02-09 04:36:00,
2013-02-08 23:41:00,14.3,11.0,29.96,East,90,5.8,33.1,93,0.00,,,0.00,Rainwise IP-100,2013-02-09 04:41:00,
2013-02-08 23:46:00,14.4,11.0,29.92,NE,45,8.9,25.2,93,0.30,,,0.05,Rainwise IP-100,2013-02-09 04:46:00,
2013-02-08 23:51:00,14.5,14.0,29.92,NNW,337,11.9,24.2,94,0.30,,,0.05,Rainwise IP-100,2013-02-09 04:51:00,
2013-02-08 23:56:00,14.3,11.0,29.92,East,90,6.8,29.8,93,0.00,,,0.05,Rainwise IP-100,2013-02-09 04:56:00,